Jaipur, India

2:18 PM IST on November 25, 2017 (GMT +0530)
Jaipur

Weather History for VIJP - November, 2012

Change the Weather History Date:

Tuesday, November 13, 2012

  Actual Average Record
Temperature  
Mean Temperature 74 °F -  
Max Temperature 88 °F - - ()
Min Temperature 60 °F - - ()
Cooling Degree Days 9    
Growing Degree Days 24 (Base 50)    
Moisture  
Dew Point 46 °F    
Average Humidity 41    
Maximum Humidity 63    
Minimum Humidity 20    
Precipitation  
Precipitation 0.00 in - - ()
Sea Level Pressure  
Sea Level Pressure 30.04 in    
Wind  
Wind Speed 1 mph ()    
Max Wind Speed 6 mph    
Max Gust Speed -    
Visibility 1.4 miles    
Events      
T = Trace of Precipitation, MM = Missing Value Source: Averaged Metar Reports

Daily Weather History Graph

Daily Weather History Graph

Search for Another Location

Airport or City:

Trip Planner

Search our weather history database for the weather conditions in past years. The results will help you decide how hot, cold, wet, or windy it might be!

Date:

Astronomy

Nov. 13, 2012 Rise Set
Actual Time 6:44 AM IST 5:36 PM IST
Civil Twilight 6:20 AM IST 6:01 PM IST
Nautical Twilight 5:52 AM IST 6:29 PM IST
Astronomical Twilight 5:24 AM IST 6:56 PM IST
Moon 5:51 AM IST (11/13) 5:07 PM IST (11/13)
Length of Visible Light 11h 40m
Length of Day
10h 52m
Waning Crescent, 1% of the Moon is Illuminated
Nov 13
Waning Crescent
Nov 14
New
Nov 20
First Quarter
Nov 28
Full
Dec 6
Last Quarter

Hourly Weather History & Observations

Time (IST) Temp. Dew Point Humidity Pressure Visibility Wind Dir Wind Speed Gust Speed Precip Events Conditions
12:00 AM 66.2 °F 42.8 °F 43% 30.01 in 1.6 mi Calm Calm - N/A   Haze
2:00 AM 64.4 °F 46.4 °F 52% 30.01 in 1.6 mi Calm Calm - N/A   Haze
2:30 AM 63 °F 46 °F 44% 29.99 in 1 mi Calm Calm - -   Haze
3:00 AM 62.6 °F 46.4 °F 55% 30.01 in 1.6 mi Calm Calm - N/A   Haze
5:00 AM 62.6 °F 46.4 °F 55% 30.01 in 1.6 mi Calm Calm - N/A   Haze
5:30 AM 62.6 °F 48.2 °F 59% 30.04 in 1.6 mi Calm Calm - N/A   Haze
6:00 AM 62.6 °F 48.2 °F 59% 30.04 in 1.6 mi Calm Calm - N/A   Haze
6:30 AM 62.6 °F 46.4 °F 55% 30.04 in 1.2 mi Calm Calm - N/A   Haze
7:00 AM 62.6 °F 48.2 °F 59% 30.06 in 1.2 mi Calm Calm - N/A   Haze
7:30 AM 64.4 °F 46.4 °F 52% 30.06 in 1.1 mi Calm Calm - N/A   Smoke
8:00 AM 62.6 °F 50.0 °F 63% 30.06 in 1.1 mi Variable 2.3 mph - N/A   Smoke
8:30 AM 71 °F 48 °F 33% 30.04 in 1 mi Calm Calm - -   Smoke
8:30 AM 69.8 °F 48.2 °F 46% 30.09 in 1.1 mi Calm Calm - N/A   Smoke
9:00 AM 75.2 °F 48.2 °F 38% 30.09 in 1.4 mi Calm Calm - N/A   Smoke
10:00 AM 78.8 °F 46.4 °F 32% 30.12 in 1.6 mi ESE 5.8 mph - N/A   Smoke
11:00 AM 80.6 °F 48.2 °F 32% 30.09 in 1.9 mi SE 4.6 mph - N/A   Haze
11:30 AM 80.6 °F 48.2 °F 32% 30.09 in 1.9 mi SE 4.6 mph - N/A   Haze
12:00 PM 82.4 °F 48.2 °F 30% 30.09 in 1.9 mi Variable 3.5 mph - N/A   Haze
1:00 PM 82.4 °F 42.8 °F 25% 30.06 in 1.9 mi SSW 4.6 mph - N/A   Haze
2:00 PM 84.2 °F 41.0 °F 22% 30.04 in 1.9 mi Variable 1.2 mph - N/A   Haze
3:00 PM 84.2 °F 41.0 °F 22% 30.01 in 1.9 mi Calm Calm - N/A   Haze
4:00 PM 84.2 °F 42.8 °F 23% 30.01 in 1.9 mi Calm Calm - N/A   Haze
5:00 PM 80.6 °F 46.4 °F 30% 30.01 in 1.9 mi Variable 1.2 mph - N/A   Haze
5:30 PM 77 °F 48 °F 25% 29.94 in 1 mi Calm Calm - -   Haze
6:00 PM 73.4 °F 48.2 °F 41% 30.01 in 1.9 mi Calm Calm - N/A   Haze
7:00 PM 69.8 °F 50.0 °F 49% 30.01 in 1.2 mi Calm Calm - N/A   Smoke
8:00 PM 73.4 °F 46.4 °F 38% 30.04 in 1.2 mi NE 4.6 mph - N/A   Smoke
8:30 PM 72 °F 39 °F 20% 29.97 in 1 mi NNE 2.3 mph - -   Smoke
9:00 PM 69.8 °F 41.0 °F 35% 30.04 in 0.9 mi Variable 3.5 mph - N/A   Smoke
10:00 PM 68.0 °F 44.6 °F 43% 30.04 in 0.9 mi Calm Calm - N/A   Smoke
11:00 PM 66.2 °F 42.8 °F 43% 30.04 in 0.9 mi Calm Calm - N/A   Smoke
11:30 PM 65 °F 48 °F 44% 29.99 in 1 mi Calm Calm - -   Smoke